Flag for U.S.A. Weather past 2 weeks in Costa Mesa, California, U.S.A.

60 °F

Scattered clouds.

Feels Like: 60 °F
Forecast: 50 / 62 °F
Wind: 8 mph from West

Location: John Wayne Airport-Orange County Airport

Current Time: Nov 25, 2015 at 11:23:48 AM

Latest Report: Nov 25, 2015 at 10:53 AM

Visibility: 10 mi

Pressure: 29.92 "Hg

Humidity: 52%

Dew point: 42 °F

Location of Costa MesaLocation

Historic Weather in Costa Mesa — Graph


Costa Mesa temperature yesterday

Maximum temperature yesterday: 67 °F (at 11:53 AM)
Minimum temperature yesterday: 52 °F (at 5:53 AM)
Average temperature yesterday: 60 °F

Past Weeks' High & Low Weather Summary

High87 °F (Nov 21, 1:53 PM)90% (Nov 25, 1:53 AM)30.29 "Hg (Nov 25, 1:53 AM)
Low43 °F (Nov 17, 4:53 AM)11% (Nov 17, 11:53 AM)29.85 "Hg (Nov 25, 2:53 AM)
Average61 °F49%29.98 "Hg
* Reported Nov 10 9:53 AM — Nov 25 9:53 AM, Costa Mesa, Weather by CustomWeather, © 2015

Note: Actual official high and low records may vary slightly from our data, if they occured in-between our weather recording intervals... More about our weather records


Costa Mesa weather history for previous 24 hours

Time TempWeatherWind HumidityBarometerVisibility
9:53 AM
Wed, Nov 25
60 °FScattered clouds.5 mph46%29.93 "Hg10 mi
8:53 AM58 °FScattered clouds.3 mph54%29.93 "Hg10 mi
7:53 AM56 °FScattered clouds.No wind58%29.90 "Hg10 mi
6:53 AM55 °FScattered clouds.No wind59%29.88 "Hg10 mi
5:53 AM56 °FPassing clouds.5 mph60%29.86 "Hg10 mi
4:53 AM56 °FPartly cloudy.3 mph62%29.86 "Hg10 mi
3:53 AM57 °FOvercast.5 mph64%29.86 "Hg10 mi
2:53 AM57 °FOvercast.6 mph74%29.85 "Hg10 mi
1:53 AM58 °FLight rain. Fog.6 mph90%29.86 "Hg5 mi
12:53 AM59 °FOvercast.No wind84%29.85 "Hg10 mi
11:53 PM
Tue, Nov 24
60 °FMostly cloudy.No wind69%29.88 "Hg10 mi
10:53 PM59 °FPassing clouds.3 mph72%29.89 "Hg10 mi
9:53 PM60 °FPassing clouds.No wind69%29.90 "Hg10 mi
8:53 PM61 °FPassing clouds.No wind67%29.90 "Hg10 mi
7:53 PM61 °FPassing clouds.5 mph67%29.90 "Hg10 mi
6:53 PM60 °FPartly cloudy.5 mph69%29.88 "Hg10 mi
5:53 PM61 °FPassing clouds.6 mph72%29.89 "Hg10 mi
4:56 PM61 °FPassing clouds.3 mph77%29.88 "Hg10 mi
3:53 PM63 °FPartly sunny.8 mph70%29.90 "Hg10 mi
2:53 PM64 °FPartly sunny.8 mph70%29.89 "Hg10 mi
1:53 PM64 °FPartly sunny.8 mph68%29.90 "Hg10 mi
12:53 PM66 °FScattered clouds.12 mph63%29.92 "Hg10 mi
11:53 AM67 °FScattered clouds.12 mph63%29.93 "Hg10 mi
Weather by CustomWeather, © 2015

See weather overviewHow to use our weather pages